Weather Roundup
Issued by NWS

Home | Current Version | Previous Version | Text Only | Print | Product List | Glossary On
Versions: 1 2 3 4 5 6 7 8 9 10 11 12 13 14 15 16 17 18 19 20 21 22 23 24 25 26 27 28 29 30 31 32 33 34 35 36 37 38 39 40 41 42 43 44 45 46 47 48 49 50
000
NZUS93 KARX 231610
HRRWXR

CURRENT HOURLY OBSERVATIONS ACROSS
MUCH OF THE UPPER MISSISSIPPI VALLEY
NATIONAL WEATHER SERVICE LA CROSSE WI
1100 AM CDT WED JUL 23 2014


...SOUTHEAST MINNESOTA...


CITY           SKY/WX    TMP DP  RH WIND       PRES   REMARKS
ROCHESTER      PTSUNNY   73  59  61 NW5       30.26S
ROCHESTER/MAYO FAIR      74  52  45 N7        30.25F
WINONA         SUNNY     73  55  53 CALM      30.24R
AUSTIN         MOSUNNY   75  54  46 E6        30.25S
ALBERT LEA     MOSUNNY   75  55  50 NE5       30.25S
DODGE CENTER   PTSUNNY   73  61  64 NE5       30.26S
PRESTON        MOSUNNY   70  61  74 N3        30.26S
OWATONNA       MOSUNNY   75  57  53 N5        30.25S
FARIBAULT      SUNNY     79  52  38 NE5       30.25F
$$

...ELSEWHERE IN MINNESOTA...


CITY           SKY/WX    TMP DP  RH WIND       PRES   REMARKS
MINNEAPOLIS    MOSUNNY   77  52  41 VRB5      30.24F
INTNL FALLS    SUNNY     69  51  52 N7        30.29F
DULUTH         MOSUNNY   71  52  50 N13       30.26R
RED WING       SUNNY     79  55  44 NW5       30.22F
REDWOOD FALLS  SUNNY     77  53  43 E7        30.27S
MANKATO        SUNNY     73  55  53 N7        30.26S
WORTHINGTON    SUNNY     72  59  64 NE8       30.29F
FAIRMONT       SUNNY     73  57  56 E5        30.26S
$$

...SOUTHWEST WISCONSIN...


CITY           SKY/WX    TMP DP  RH WIND       PRES   REMARKS
LA CROSSE      MOSUNNY   77  58  51 VRB3      30.22F
PRAIRIE DU CHI SUNNY     74  52  45 NE10      30.22S
BOSCOBEL       MOSUNNY   77  56  48 VRB3      30.23S
LONE ROCK      MOSUNNY   78  58  49 NE5       30.22R
PLATTEVILLE    SUNNY     74  55  52 NE9       30.23S
FORT MC COY    MOSUNNY   72  54  52 N3        30.24F
CAMP DOUGLAS   MOSUNNY   73  59  60 VRB2      30.23S
VIROQUA        FAIR      73  57  58 NE7       30.24F
WIS DELLS      MOSUNNY   71  52  50 N5        30.23R
$$

...ELSEWHERE IN WISCONSIN...


CITY           SKY/WX    TMP DP  RH WIND       PRES   REMARKS
MILWAUKEE      MOSUNNY   66  55  67 N16G23    30.18S
MADISON        MOSUNNY   75  56  51 NE14      30.20S
GREEN BAY      SUNNY     71  51  49 N10       30.19F
EAU CLAIRE     SUNNY     76  56  49 VRB3      30.22S
BLACK RVR FLS  FAIR      73  53  48 W3        30.23F
MEDFORD        MOSUNNY   67  57  69 NW3       30.24F
WAUSAU         MOSUNNY   70  54  56 VRB7      30.22S
WIS RAPIDS     SUNNY     73  55  53 VRB6      30.24S
MARSHFIELD       N/A     72  56  57 N8        30.23S
RICE LAKE      SUNNY     72  55  54 NW6       30.25S
$$

...NORTHEAST IOWA...


CITY           SKY/WX    TMP DP  RH WIND       PRES   REMARKS
WATERLOO       SUNNY     76  56  49 NE9       30.22S
DUBUQUE        SUNNY     72  59  63 NE15      30.22S
DECORAH        SUNNY     72  57  60 CALM      30.23F
MASON CITY     MOSUNNY   75  58  55 E7        30.26S
CHARLES CITY   SUNNY     75  55  50 E9        30.25S
OELWEIN        SUNNY     73  57  56 NE10      30.24F
$$

...ELSEWHERE IN IOWA...


CITY           SKY/WX    TMP DP  RH WIND       PRES   REMARKS
DES MOINES     PTSUNNY   80  63  55 MISG      30.21R
IOWA CITY      SUNNY     75  63  66 NE10      30.20R
FORT DODGE     SUNNY     75  63  64 E3        30.26R
MARSHALLTOWN   SUNNY     77  61  57 NE6       30.22S
CEDAR RAPIDS   SUNNY     75  58  55 NE13      30.20R
$$

...NORTHERN ILLINOIS...


CITY           SKY/WX    TMP DP  RH WIND       PRES   REMARKS
CHICAGO-OHARE  MOSUNNY   70  53  54 NE17G25   30.15F
DUPAGE         SUNNY     74  55  51 NE14      30.15S
CHICAGO-MIDWAY MOSUNNY   70  57  63 N21G28    30.15R
MOLINE         SUNNY     76  58  53 N15       30.17S
ROCKFORD       MOSUNNY   75  54  47 NE16      30.19S
STERLING       SUNNY     75  59  57 NE14      30.18S
PEORIA         SUNNY     78  58  49 NE16      30.13S
$$

NOTE: "FAIR" INDICATES FEW OR NO CLOUDS BELOW 12,000 FEET WITH NO
SIGNIFICANT WEATHER AND/OR OBSTRUCTIONS TO VISIBILITY. WIND
SPEEDS ARE IN MILES-PER-HOUR.



USA.gov is the U.S. government's official web portal to all federal, state and local government web resources and services.